TimeHST,TemperatureF,Dew PointF,Humidity,Sea Level PressureIn,VisibilityMPH,Wind Direction,Wind SpeedMPH,Gust SpeedMPH,PrecipitationIn,Events,Conditions,WindDirDegrees,DateUTC
12:12 AM,77.0,69.8,78,30.03,6.2,East,8.1,-,N/A,,Scattered Clouds,90,2012-10-04 10:12:00
12:57 AM,76.6,69.1,77,30.01,10.0,Calm,Calm,-,N/A,,Partly Cloudy,0,2012-10-04 10:57:00
1:57 AM,75.0,68.0,79,30.00,10.0,ENE,5.8,-,N/A,,Scattered Clouds,70,2012-10-04 11:57:00
2:57 AM,75.0,69.1,82,29.99,10.0,Calm,Calm,-,N/A,,Scattered Clouds,0,2012-10-04 12:57:00
3:17 AM,75.2,68.0,78,30.00,6.2,East,3.5,-,N/A,,Mostly Cloudy,90,2012-10-04 13:17:00
3:46 AM,75.2,68.0,78,29.99,6.2,East,3.5,-,N/A,,Scattered Clouds,90,2012-10-04 13:46:00
3:57 AM,74.5,68.0,80,29.98,10.0,Variable,3.5,-,N/A,,Scattered Clouds,0,2012-10-04 13:57:00
4:57 AM,75.7,68.0,77,29.98,10.0,East,3.5,-,N/A,,Scattered Clouds,80,2012-10-04 14:57:00
5:57 AM,75.7,68.0,77,30.00,10.0,Calm,Calm,-,N/A,,Scattered Clouds,0,2012-10-04 15:57:00
6:57 AM,75.2,68.0,78,30.01,10.0,Calm,Calm,-,N/A,,Scattered Clouds,0,2012-10-04 16:57:00
7:57 AM,78.3,69.1,73,30.02,10.0,East,5.8,-,N/A,,Scattered Clouds,100,2012-10-04 17:57:00
8:57 AM,78.8,68.0,69,30.03,10.0,ESE,8.1,-,N/A,,Partly Cloudy,120,2012-10-04 18:57:00
9:57 AM,79.5,69.4,71,30.02,10.0,East,9.2,-,N/A,,Partly Cloudy,80,2012-10-04 19:57:00
10:57 AM,80.6,70.2,70,30.02,10.0,NE,8.1,-,N/A,,Scattered Clouds,40,2012-10-04 20:57:00
11:57 AM,81.0,69.1,67,30.01,10.0,NE,9.2,-,N/A,,Scattered Clouds,40,2012-10-04 21:57:00
12:57 PM,81.9,68.0,63,29.99,10.0,NNE,6.9,-,N/A,,Scattered Clouds,30,2012-10-04 22:57:00
1:57 PM,79.7,69.8,72,29.97,10.0,ENE,6.9,-,N/A,,Scattered Clouds,60,2012-10-04 23:57:00
2:22 PM,80.6,69.8,70,29.98,6.2,ENE,4.6,-,0.00,Rain,Light Rain,60,2012-10-05 00:22:00
2:57 PM,80.2,70.0,71,29.96,10.0,East,8.1,-,0.00,,Overcast,100,2012-10-05 00:57:00
3:35 PM,80.6,69.8,70,29.97,6.2,East,5.8,-,N/A,,Mostly Cloudy,90,2012-10-05 01:35:00
3:57 PM,79.9,70.0,72,29.96,10.0,ENE,6.9,-,N/A,,Mostly Cloudy,60,2012-10-05 01:57:00
4:04 PM,84.2,69.8,62,29.98,6.2,East,9.2,-,N/A,,Overcast,80,2012-10-05 02:04:00
4:11 PM,80.6,69.8,70,29.98,6.2,ENE,8.1,-,N/A,,Overcast,70,2012-10-05 02:11:00
4:45 PM,80.6,69.8,70,29.98,6.2,East,5.8,-,N/A,,Overcast,100,2012-10-05 02:45:00
4:57 PM,80.4,69.1,68,29.97,10.0,East,5.8,-,N/A,,Mostly Cloudy,90,2012-10-05 02:57:00
5:57 PM,77.7,68.0,72,29.97,10.0,ESE,5.8,-,N/A,,Scattered Clouds,110,2012-10-05 03:57:00
6:57 PM,77.4,69.8,77,29.98,10.0,ESE,4.6,-,N/A,,Partly Cloudy,120,2012-10-05 04:57:00
7:57 PM,76.6,68.9,77,30.00,10.0,ESE,4.6,-,N/A,,Partly Cloudy,120,2012-10-05 05:57:00
8:57 PM,75.2,69.1,81,30.02,10.0,East,3.5,-,N/A,,Mostly Cloudy,90,2012-10-05 06:57:00
9:57 PM,75.9,68.0,76,30.03,10.0,Variable,3.5,-,N/A,,Mostly Cloudy,0,2012-10-05 07:57:00
10:57 PM,75.0,69.1,82,30.02,10.0,ESE,4.6,-,N/A,,Clear,120,2012-10-05 08:57:00
11:57 PM,75.4,68.0,78,30.01,10.0,Variable,5.8,-,N/A,,Scattered Clouds,0,2012-10-05 09:57:00